Location: Chervonnoye
(48.6000°N, 34.4000°E)
Time: 21:09:16
(UTC+00:00)

RS-44 - Pass Details

Date: 07 December 2021
Orbit: 1175 x 1510 km, 82.5° (Epoch: 19 January)

Event Time Altitude Azimuth Distance (km) Brightness Sun altitude
Rises 17:26:46 0° 203° (SSW) 4,088 ? -35.3°
Reaches altitude 10° 17:29:31 10° 208° (SSW) 3,108 ? -35.7°
Maximum altitude 17:36:33 56° 286° (WNW) 1,378 ? -36.9°
Enters shadow 17:39:11 38° 342° (NNW) 1,734 ? -37.3°
Drops below altitude 10° 17:43:40 10° 4° (N) 3,135 ? -38.0°
Exits shadow 17:43:40 10° 4° (N) 3,136 ? -38.0°
Sets 17:46:28 0° 9° (N) 4,127 ? -38.5°
